Regional Weather Roundup
Issued by NWS

Home | Current Version | Previous Version | Graphics & Text | Print | Product List | Glossary On
Versions: 1 2 3 4 5 6 7 8 9 10 11 12 13 14 15 16 17 18 19 20 21 22 23 24 25 26 27 28 29 30 31 32 33 34 35 36 37 38 39 40 41 42 43 44 45 46 47 48 49 50
000
ASUS43 KTOP 190808
RWRKS

WEATHER ROUNDUP FOR KANSAS
NATIONAL WEATHER SERVICE GOODLAND KS
300 AM CDT SUN APR 19 2015

NOTE:  "FAIR" INDICATES FEW OR NO CLOUDS BELOW 12,000 FEET WITH NO
SIGNIFICANT WEATHER AND/OR OBSTRUCTIONS TO VISIBILITY.

KSZ001>006-013>018-027>032-041>047-190900-
NORTHWEST KANSAS

CITY           SKY/WX    TMP DP  RH WIND       PRES   REMARKS
GOODLAND       RAIN      47  46  97 NE13      29.84S FOG
HAYS           CLOUDY    48  41  76 NE6       29.75F
HILL CITY      CLOUDY    51  47  86 NE7       29.78F
RUSSELL        CLOUDY    49  47  93 E3        29.74F
$$

KSZ061>065-074>080-084>089-190900-
SOUTHWEST KANSAS

CITY           SKY/WX    TMP DP  RH WIND       PRES   REMARKS
DODGE CITY     CLEAR     45  38  76 W8        29.77F
ELKHART          N/A    N/A N/A N/A MISG        N/A
GARDEN CITY    CLEAR     39  37  92 W10       29.77F WCI  32
GREAT BEND     MOCLDY    48  45  87 CALM      29.76F
LIBERAL        PTCLDY    43  34  70 W9        29.83F
PRATT          MOCLDY    50  46  87 SW5       29.76S
$$

KSZ066>073-081>083-090>101-190900-
SOUTHEAST KANSAS

CITY           SKY/WX    TMP DP  RH WIND       PRES   REMARKS
CHANUTE        CLOUDY    54  53  97 NW8       29.80F
COFFEYVILLE    CLOUDY    55  53  93 N10       29.79F
HUTCHINSON     CLOUDY    54  50  86 SW3       29.75F
MEDICINE LODGE   N/A     51  50  96 S5        29.76S
NEWTON         CLOUDY    52  46  82 E7        29.76S
PARSONS        CLOUDY    55  54  96 N9        29.80F
WICHITA INTL   CLOUDY    53  50  89 S3        29.75R
WICHITA JABRA  CLOUDY    53  53 100 SE7       29.75R
WICHITA MCCONL CLOUDY    54  52  94 E6        29.75R
WINFIELD       CLOUDY    54  52  93 E10       29.76S
$$

KSZ007>012-019>026-033>040-048>060-102>105-190900-
NORTHEAST KANSAS

CITY           SKY/WX    TMP DP  RH WIND       PRES   REMARKS
CONCORDIA      CLOUDY    52  52 100 E3        29.73F
EMPORIA        CLOUDY    53  52  96 NE6       29.76F
LAWRENCE       LGT RAIN  57  52  83 CALM      29.77F
MANHATTAN      RAIN      54  53  97 S8        29.77F FOG
MARYSVILLE     LGT RAIN  54  50  87 S7        29.74S
OLATHE IND     LGT RAIN  54  53  97 NW6       29.77F
OLATHE EXE     CLOUDY    58  57  97 CALM      29.75F
SALINA         CLOUDY    54  51  90 W12       29.76R
TOPEKA BILLARD LGT RAIN  57  53  86 SW9       29.80S
TOPEKA FORBES  RAIN      56  53  90 SW9       29.81R FOG
$$



USA.gov is the U.S. government's official web portal to all federal, state and local government web resources and services.